FW3734 Weather Reports


Display with metric or nautical units.
time (UTC)temp
F
wind
direction
speed
MPH
gust
MPH
rain 1hr
in
rain 24hr
in
rain mn
in
humidity
%
barometer
mb
20260507130047 46 225 0.0 0.0 0.00 0.00 0.00 87 1018.7
20260507124544 45 225 0.0 0.0 0.00 0.00 0.00 90 1018.5
20260507123055 43 225 0.0 0.0 0.00 0.00 0.00 91 1018.4
20260507121544 42 225 0.0 1.0 0.00 0.00 0.00 91 1018.4
20260507120040 42 10 0.0 0.0 0.00 0.00 0.00 91 1018.2
20260507114539 41 10 0.0 0.0 0.00 0.00 0.00 91 1018.2
20260507113039 41 10 0.0 0.0 0.00 0.00 0.00 91 1018.0
20260507111539 41 10 0.0 0.0 0.00 0.00 0.00 91 1018.0
20260507110038 41 10 0.0 0.0 0.00 0.00 0.00 91 1017.8
20260507104538 41 10 0.0 0.0 0.00 0.00 0.00 90 1017.6
20260507103034 42 10 0.0 0.0 0.00 0.00 0.00 90 1017.6
20260507101534 42 10 0.0 0.0 0.00 0.00 0.00 89 1017.6
20260507100042 42 10 0.0 0.0 0.00 0.00 0.00 89 1017.6
20260507094533 42 10 0.0 0.0 0.00 0.00 0.00 89 1017.5
20260507093031 42 10 0.0 0.0 0.00 0.00 0.00 89 1017.5
20260507091535 42 10 0.0 0.0 0.00 0.00 0.00 89 1017.6
20260507090029 41 10 0.0 0.0 0.00 0.00 0.00 89 1017.6
20260507084528 42 10 0.0 0.0 0.00 0.00 0.00 88 1017.8
20260507083026 42 10 0.0 0.0 0.00 0.00 0.00 87 1017.8
20260507081524 42 10 0.0 0.0 0.00 0.00 0.00 86 1018.0
20260507080022 42 10 0.0 0.0 0.00 0.00 0.00 85 1018.1
20260507074520 43 10 0.0 0.0 0.00 0.01 0.00 85 1017.9
20260507073018 43 10 0.0 0.0 0.00 0.01 0.00 84 1017.9
20260507071523 43 10 0.0 0.0 0.00 0.01 0.00 83 1017.9
20260507070014 44 10 0.0 0.0 0.00 0.01 0.00 83 1017.9
20260507064511 44 10 0.0 0.0 0.00 0.05 0.00 82 1018.1
20260507063009 44 10 0.0 0.0 0.00 0.05 0.00 80 1017.9
20260507061508 44 10 0.0 0.0 0.00 0.05 0.00 79 1018.1
20260507060005 45 10 0.0 0.0 0.00 0.05 0.00 78 1018.1
20260507054504 45 10 0.0 0.0 0.00 0.07 0.00 78 1018.0
20260507053110 46 10 0.0 0.0 0.00 0.07 0.00 76 1017.9
20260507051607 46 10 0.0 0.0 0.00 0.07 0.00 75 1018.0
20260507050054 47 10 0.0 0.0 0.00 0.07 0.00 74 1017.9
20260507044557 47 10 0.0 0.0 0.00 0.08 0.07 74 1017.8
20260507043055 47 10 0.0 0.0 0.00 0.08 0.07 72 1017.7
20260507041551 48 10 0.0 0.0 0.00 0.08 0.07 72 1017.7
20260507040048 48 10 0.0 0.0 0.00 0.08 0.07 70 1017.7
20260507034549 49 10 0.0 0.0 0.00 0.09 0.07 68 1017.8
20260507033047 50 10 0.0 0.0 0.00 0.09 0.07 66 1017.8
20260507031546 51 10 0.0 1.0 0.00 0.09 0.07 64 1017.7
20260507030046 51 10 0.0 0.0 0.00 0.09 0.07 63 1017.7
20260507024546 51 10 0.0 0.0 0.00 0.10 0.07 62 1017.7
20260507023044 52 10 0.0 0.0 0.00 0.10 0.07 62 1017.6
20260507021544 53 10 0.0 0.0 0.00 0.10 0.07 61 1017.4
20260507020057 53 10 0.0 0.0 0.00 0.10 0.07 60 1017.3
20260507014546 54 10 0.0 0.0 0.00 0.19 0.07 58 1016.9
20260507013042 55 15 0.0 0.0 0.00 0.19 0.07 54 1016.8
20260507011542 56 11 0.0 0.0 0.00 0.19 0.07 53 1016.5
20260507010056 57 36 0.0 1.0 0.00 0.19 0.07 52 1016.2
20260507004539 57 13 0.0 2.0 0.00 0.27 0.07 50 1016.1
20260507003039 58 17 0.0 6.0 0.00 0.27 0.07 47 1016.1
20260507001537 59 5 0.0 0.0 0.00 0.27 0.07 46 1016.1
20260507000037 59 355 0.0 1.0 0.00 0.27 0.07 45 1015.9
20260506234537 60 5 0.0 4.0 0.00 0.39 0.07 45 1015.8
20260506233035 60 355 0.0 6.0 0.00 0.39 0.07 44 1015.8
20260506231544 60 276 0.0 3.0 0.00 0.39 0.07 44 1015.8
20260506230045 60 25 0.0 5.0 0.00 0.39 0.07 45 1015.9
20260506224539 60 5 0.0 0.0 0.00 0.42 0.07 45 1016.0
20260506223035 60 5 0.0 4.0 0.00 0.42 0.07 45 1016.0
20260506221536 60 265 0.0 0.0 0.00 0.42 0.07 46 1016.0
20260506220038 60 40 0.0 4.0 0.00 0.42 0.07 45 1016.1
20260506214537 61 341 0.0 11.0 0.00 0.43 0.07 44 1016.2
20260506213033 62 227 0.0 5.0 0.00 0.43 0.07 44 1016.3
20260506211534 61 38 0.0 9.0 0.00 0.43 0.07 46 1016.2
20260506210031 61 248 0.0 9.0 0.00 0.43 0.07 45 1016.4
20260506204533 60 10 0.0 1.0 0.00 0.43 0.07 46 1016.4
20260506203024 60 11 0.0 4.0 0.00 0.43 0.07 45 1016.8
20260506201530 60 360 0.0 5.0 0.00 0.43 0.07 46 1017.0
20260506200021 60 281 0.0 13.0 0.00 0.43 0.07 44 1017.0
20260506194519 60 17 0.0 6.0 0.00 0.43 0.07 43 1017.1
20260506193023 60 18 2.0 11.0 0.00 0.43 0.07 43 1017.0
20260506191513 60 277 0.0 6.0 0.00 0.43 0.07 46 1017.1
20260506190015 59 355 1.0 10.0 0.00 0.43 0.07 47 1016.9
20260506184518 59 347 0.0 9.0 0.00 0.43 0.07 49 1016.8
20260506183006 59 360 0.0 13.0 0.00 0.43 0.07 48 1016.9
20260506181503 59 280 0.0 4.0 0.00 0.43 0.07 50 1017.1
20260506180001 59 17 1.0 8.0 0.00 0.43 0.07 51 1017.3
20260506174559 58 323 1.0 10.0 0.00 0.43 0.07 48 1017.3
20260506173053 57 247 0.0 9.0 0.00 0.43 0.07 64 1017.2
20260506171559 56 345 1.0 6.0 0.00 0.43 0.07 69 1017.3
20260506170050 54 28 0.0 7.0 0.00 0.43 0.07 76 1017.3
20260506164545 53 223 2.0 8.0 0.00 0.44 0.07 76 1017.3
20260506163040 52 275 2.0 8.0 0.00 0.44 0.07 80 1017.2
20260506161539 52 313 2.0 4.0 0.00 0.44 0.07 82 1017.1
20260506160035 51 298 3.0 7.0 0.00 0.44 0.07 86 1016.9
20260506154529 50 274 0.0 7.0 0.00 0.44 0.07 87 1016.6
20260506153026 50 261 0.0 2.0 0.00 0.44 0.07 91 1016.5
20260506151525 49 261 0.0 5.0 0.00 0.44 0.07 92 1016.4
20260506150022 49 296 1.0 7.0 0.00 0.44 0.07 93 1016.4
20260506144522 49 268 1.0 5.0 0.00 0.44 0.07 93 1016.3
20260506143020 48 355 0.0 7.0 0.00 0.44 0.07 94 1016.2
20260506141518 48 341 1.0 7.0 0.00 0.44 0.07 94 1016.2
20260506140019 47 317 1.0 6.0 0.00 0.44 0.07 94 1016.4
20260506134513 47 248 0.0 9.0 0.00 0.46 0.07 94 1016.3
20260506133015 47 261 1.0 9.0 0.00 0.46 0.07 94 1016.3
20260506131513 47 275 1.0 7.0 0.00 0.46 0.07 94 1016.2